Date,TemperatureHighF,TemperatureAvgF,TemperatureLowF,DewpointHighF,DewpointAvgF,DewpointLowF,HumidityHigh,HumidityAvg,HumidityLow,PressureMaxIn,PressureMinIn,WindSpeedMaxMPH,WindSpeedAvgMPH,GustSpeedMaxMPH,PrecipitationSumIn
2013-1-1,39.0,35.1,28.9,17.3,11.8,2.8,44,38,32,29.97,29.80,8,4,11,0.08
2013-1-2,33.3,28.5,25.2,5.9,1.3,-4.1,33,30,26,30.15,29.97,9,4,12,0.20
2013-1-3,27.5,24.6,21.6,4.2,-0.4,-4.3,38,33,29,30.21,30.12,8,2,9,0.04
2013-1-4,39.9,32.4,23.2,14.2,7.4,-1.6,40,34,30,30.12,29.91,8,2,15,0.00
2013-1-5,41.9,34.9,28.6,12.9,8.7,3.8,36,33,29,30.39,29.94,9,2,10,0.00
2013-1-6,42.1,35.5,29.3,22.0,14.9,5.1,48,42,35,30.33,30.03,7,1,10,0.00
2013-1-7,43.2,36.2,30.9,24.0,17.9,12.6,50,47,44,30.53,30.06,6,1,8,0.00
2013-1-8,47.3,39.4,29.7,24.5,19.5,11.4,52,45,37,30.53,30.42,11,2,11,0.00
2013-1-9,46.6,40.4,32.4,33.5,22.6,14.4,60,49,45,30.53,30.12,9,1,13,0.00
2013-1-10,45.9,42.6,39.2,25.1,17.2,13.5,46,36,29,30.62,30.15,10,4,13,0.00
2013-1-11,44.2,39.3,33.3,22.0,17.5,11.7,46,41,38,30.62,30.36,3,0,5,0.04
2013-1-12,48.4,43.2,40.5,32.5,27.1,21.8,57,53,46,30.36,30.24,0,0,4,0.08
2013-1-13,50.4,47.4,41.2,41.0,36.2,27.3,71,65,57,30.27,30.15,5,0,6,0.00
2013-1-14,56.3,50.7,44.2,49.5,43.6,37.2,81,76,71,30.36,30.06,6,1,8,0.00
2013-1-15,44.8,43.3,41.7,38.5,37.2,35.7,80,79,77,30.39,30.30,2,0,5,0.16
2013-1-16,44.6,42.3,39.4,38.7,36.5,34.3,83,80,78,30.33,29.83,6,0,8,0.67
2013-1-17,42.4,39.3,36.0,34.7,31.0,26.0,84,72,59,30.18,29.94,6,1,9,0.00
2013-1-18,36.9,27.8,22.5,25.8,12.8,5.0,66,53,43,30.62,30.12,10,2,14,0.04
2013-1-19,47.7,38.9,22.3,29.3,20.6,5.0,54,47,42,30.56,30.06,12,3,12,0.04
2013-1-20,53.2,45.7,34.0,34.7,26.2,6.5,62,47,31,30.06,29.68,11,4,15,0.00
2013-1-21,35.4,31.9,28.4,8.3,1.5,-3.9,34,27,20,30.21,29.85,10,2,11,0.00
2013-1-22,33.6,27.6,21.7,10.9,4.5,-8.6,49,37,25,30.15,29.77,10,3,13,0.00
2013-1-23,21.9,18.7,15.8,-7.1,-15.6,-21.5,27,20,17,30.24,30.12,10,4,14,0.00
2013-1-24,22.1,18.2,14.0,-5.4,-16.1,-21.0,30,20,15,30.27,30.09,14,5,14,0.00
2013-1-25,27.5,22.0,15.6,-10.1,-14.1,-20.0,21,19,18,30.39,30.12,9,3,13,0.00
2013-1-26,28.8,25.9,22.3,8.0,-0.9,-10.4,41,31,19,30.27,30.03,11,3,13,0.04
2013-1-27,30.2,26.0,21.2,2.6,-2.8,-7.4,33,28,20,30.56,30.27,11,4,15,0.00
2013-1-28,33.6,30.1,24.4,10.1,-1.9,-8.2,37,25,20,30.56,30.09,5,0,8,0.00
2013-1-29,37.6,35.6,33.6,22.0,16.7,10.3,53,46,37,30.33,30.09,3,0,4,0.24
2013-1-30,55.4,48.2,37.8,48.0,36.8,22.2,76,65,53,30.27,29.68,13,3,15,0.08
2013-1-31,55.9,48.1,34.5,50.5,35.5,8.0,85,63,32,29.68,29.18,12,5,17,0.39
2013-2-1,34.9,32.1,27.3,8.2,-0.5,-12.9,33,25,16,30.15,29.68,9,4,13,0.00
2013-2-2,32.9,28.6,24.8,5.4,-9.3,-14.7,32,19,15,30.36,30.15,8,2,11,0.00
2013-2-3,34.3,31.5,27.1,18.3,11.6,5.2,54,43,32,30.15,29.71,8,1,8,0.04
2013-2-4,32.7,28.8,26.6,16.2,3.4,-7.4,56,35,20,30.03,29.74,11,4,15,0.08
2013-2-5,33.4,29.8,26.8,12.8,2.7,-6.0,42,31,23,30.12,29.97,8,1,9,0.00
2013-2-6,38.8,34.7,31.8,19.8,14.2,5.3,50,43,32,30.36,29.97,6,1,9,0.04
2013-2-7,32.0,29.5,26.2,7.3,3.0,0.2,35,32,28,30.65,30.36,8,2,11,0.00
2013-2-8,36.1,33.9,31.8,32.4,18.5,7.3,96,56,35,30.62,29.50,8,2,13,0.24
2013-2-10,25.9,19.7,16.5,18.3,5.4,1.2,83,54,45,30.50,30.18,0,0,0,0.04
2013-2-11,44.1,34.5,20.1,40.6,24.7,2.7,88,68,46,30.50,29.68,9,1,14,0.12
2013-2-12,44.6,39.6,35.2,39.9,25.2,14.2,93,60,33,29.97,29.65,8,3,10,0.00
2013-2-13,43.2,35.7,32.0,18.4,13.0,8.6,44,39,30,29.97,29.74,6,1,8,0.00
2013-2-14,42.8,35.8,29.8,27.3,18.1,12.2,56,48,43,30.12,29.74,6,0,6,0.20
2013-2-15,49.6,37.8,28.2,31.0,21.2,13.0,65,51,41,30.15,30.03,8,1,8,0.00
2013-2-16,43.7,37.8,31.6,31.8,25.1,18.6,65,60,56,30.03,29.71,6,1,11,0.00
2013-2-17,36.9,27.8,21.6,25.8,21.3,15.9,88,77,63,29.71,29.29,17,6,18,0.00
2013-2-18,28.9,24.4,19.4,15.9,1.5,-13.1,79,41,16,30.24,29.68,17,6,18,0.00
2013-2-19,45.7,37.0,26.4,38.9,17.6,-5.5,80,47,26,30.27,29.68,8,2,15,0.98
2013-2-20,44.2,35.7,28.8,37.5,18.7,0.2,79,53,28,29.85,29.62,8,3,14,0.11
2013-2-21,34.5,32.6,28.8,13.6,6.5,2.0,42,33,30,30.15,29.85,10,5,13,0.50
2013-2-22,38.8,36.4,34.2,18.3,16.0,13.6,46,43,41,30.47,30.15,6,1,8,0.00
2013-2-23,41.2,37.3,32.2,27.3,20.4,15.6,62,50,44,30.47,29.97,4,0,6,0.31
2013-2-24,44.6,40.3,34.9,37.8,33.3,27.5,83,76,62,29.97,29.59,7,2,12,1.69
2013-2-25,47.7,37.1,29.8,42.4,25.7,12.6,89,66,42,30.36,29.91,8,1,8,0.08
2013-2-26,50.4,37.1,27.9,29.9,18.2,12.3,58,46,35,30.45,30.24,4,0,5,0.00
2013-2-27,45.7,43.0,40.3,42.0,35.5,23.1,87,76,50,30.24,29.62,5,1,10,0.67
2013-2-28,45.1,41.3,38.7,41.9,37.5,34.2,89,86,84,29.71,29.56,5,0,6,0.00
2013-3-1,44.8,39.4,36.7,36.0,31.9,27.6,85,75,64,29.74,29.56,8,2,10,0.00
2013-3-2,45.9,39.8,36.9,28.1,22.4,17.4,67,50,39,29.74,29.68,8,2,9,0.00
2013-3-3,42.6,38.7,36.7,23.0,20.8,18.3,53,48,43,29.68,29.62,6,2,7,0.00
2013-3-4,43.0,37.1,33.8,22.8,18.4,13.2,60,47,30,29.74,29.62,10,4,13,0.00
2013-3-5,44.2,38.5,35.4,33.2,24.5,18.5,65,57,49,30.12,29.74,10,2,13,0.04
2013-3-6,43.3,39.6,36.5,34.6,29.3,25.5,72,66,61,30.15,30.00,8,1,11,0.04
2013-3-7,39.2,37.5,36.1,33.9,31.8,28.8,87,80,66,30.03,29.91,14,4,17,1.18
2013-3-8,39.6,37.0,35.1,37.1,33.8,31.8,92,88,78,30.12,29.88,11,3,13,0.91
2013-3-9,41.9,38.4,36.3,33.0,29.3,25.0,78,70,62,30.42,30.12,8,2,11,0.04
2013-3-10,44.6,40.1,36.9,29.5,25.2,20.9,65,55,49,30.50,30.42,4,0,6,0.00
2013-3-11,49.1,41.9,36.7,32.1,26.6,20.7,66,55,45,30.47,30.30,6,1,8,0.00
2013-3-12,53.1,49.5,42.6,48.0,41.2,32.1,88,73,63,30.33,29.85,13,3,16,0.16
2013-3-13,52.3,47.6,41.2,49.0,34.4,14.2,89,63,32,29.85,29.77,10,2,14,0.79
2013-3-14,41.0,36.0,28.6,15.7,6.8,-9.5,42,30,17,29.88,29.77,8,2,13,0.00
2013-3-15,40.8,32.6,25.7,12.7,-4.1,-12.3,37,21,11,29.94,29.74,11,4,14,0.00
2013-3-16,41.0,36.5,33.3,14.8,7.0,-0.7,40,29,18,29.94,29.74,10,2,11,0.00
2013-3-17,43.2,35.1,27.9,16.2,2.5,-10.3,43,27,14,30.39,29.94,10,2,10,0.00
2013-3-18,41.7,33.3,27.9,11.6,-2.3,-12.8,41,22,15,30.56,30.36,6,1,8,0.00
2013-3-19,42.6,37.0,32.4,37.3,27.4,11.6,88,69,41,30.36,29.56,10,2,20,0.71
2013-3-20,43.5,37.3,32.2,31.3,8.5,-0.4,86,32,18,29.91,29.68,8,2,12,0.00
2013-3-21,45.7,36.0,28.9,23.4,14.3,5.9,49,41,34,29.91,29.62,6,1,7,0.00
2013-3-22,40.5,34.9,31.8,31.3,22.7,14.9,73,61,46,29.80,29.62,8,1,8,0.43
2013-3-23,46.0,37.3,31.5,15.4,8.8,-2.2,46,32,15,29.83,29.71,13,5,13,0.00
2013-3-24,50.2,39.2,33.1,18.4,10.8,7.2,39,31,21,29.91,29.83,8,3,11,0.00
2013-3-25,53.2,40.9,32.2,27.2,16.6,8.7,44,37,28,29.83,29.50,9,2,13,0.00
2013-3-26,51.3,41.3,36.7,22.4,15.3,1.4,49,36,18,29.83,29.50,9,2,11,0.00
2013-3-27,56.8,44.5,32.7,20.3,8.8,-4.7,44,26,10,29.91,29.83,7,2,9,0.00
2013-3-28,54.1,44.2,39.9,34.0,22.6,16.9,57,43,29,30.09,29.88,6,2,231,0.04
2013-3-29,60.3,47.2,38.8,25.7,20.0,16.2,48,34,22,30.12,30.06,6,1,8,0.00
2013-3-30,59.2,46.7,39.9,25.9,18.2,3.4,44,33,12,30.21,30.12,6,1,8,0.00
2013-3-31,59.2,45.8,34.2,28.8,18.7,5.6,52,35,12,30.24,29.88,8,1,11,0.00
2013-4-1,59.2,49.3,39.2,47.5,34.4,15.7,79,58,36,29.88,29.65,13,3,15,0.24
2013-4-2,45.3,38.2,33.8,15.6,-1.9,-12.3,38,19,10,30.06,29.85,11,4,15,0.00
2013-4-3,50.9,40.1,32.9,-5.3,-9.9,-13.3,18,11,8,30.24,30.03,10,5,14,0.00
2013-4-4,54.3,41.4,35.2,19.0,-0.4,-11.9,41,19,8,30.42,30.21,10,4,13,0.00
2013-4-5,49.1,43.7,40.8,37.5,28.5,19.0,65,55,41,30.21,29.74,6,1,9,0.04
2013-4-6,51.3,40.6,34.5,27.8,3.6,-12.4,57,25,9,30.47,29.91,13,3,14,0.00
2013-4-7,54.5,42.7,30.6,31.6,13.3,-5.9,52,32,11,30.47,30.15,10,2,14,0.00
2013-4-8,66.9,52.6,44.4,43.2,30.0,18.6,67,44,22,30.24,30.06,9,2,10,0.00
2013-4-9,74.1,54.1,44.6,49.0,31.8,22.4,72,44,24,30.24,29.94,8,2,9,0.00
2013-4-10,63.1,50.8,45.5,44.7,32.5,26.2,67,50,35,30.12,29.97,6,0,6,0.24
2013-4-11,56.1,47.8,45.5,44.4,34.1,27.1,72,59,46,30.24,29.88,7,0,8,0.04
2013-4-12,46.4,43.7,39.7,36.3,27.5,21.6,73,54,40,30.27,29.74,8,1,8,0.87
2013-4-13,48.9,44.2,39.6,41.2,35.3,28.8,81,71,64,30.03,29.74,6,1,9,0.08
2013-4-14,54.7,46.6,40.6,41.2,29.0,19.8,74,52,36,30.30,30.03,6,1,8,0.00
2013-4-15,58.8,47.7,41.0,33.6,23.5,19.1,49,39,28,30.56,30.30,4,0,7,0.00
2013-4-16,61.7,49.9,39.2,38.1,29.8,22.6,64,47,32,30.56,30.24,10,2,12,0.00
2013-4-17,65.3,54.0,43.9,49.0,34.8,18.6,74,51,22,30.45,30.21,8,1,13,0.04
2013-4-18,62.8,50.1,39.2,33.1,23.8,16.1,52,37,19,30.56,30.30,8,1,10,0.00
2013-4-19,63.9,58.6,50.2,58.7,51.4,33.7,87,77,53,30.30,29.88,13,4,14,0.00
2013-4-20,62.1,54.2,46.2,58.5,49.7,39.3,90,85,76,30.30,29.80,13,2,13,0.43
2013-4-21,55.2,45.9,40.6,39.9,21.8,10.1,77,40,21,30.80,30.30,8,2,12,0.00
2013-4-22,59.5,45.4,37.0,27.5,20.7,14.7,43,37,27,30.86,30.68,5,1,9,0.00
2013-4-23,46.9,45.4,43.7,37.7,33.0,22.7,75,62,43,30.68,30.06,6,1,9,0.83
2013-4-24,57.2,48.7,44.8,51.3,41.8,37.7,86,77,66,30.06,29.88,13,4,15,0.12
2013-4-25,57.9,52.1,45.1,50.1,40.8,26.6,84,67,38,30.36,30.00,7,1,10,0.04
2013-4-26,63.7,49.9,42.1,39.1,28.5,23.7,60,44,28,30.56,30.36,6,0,6,0.00
2013-4-27,64.2,50.3,38.7,33.5,19.6,3.7,54,33,12,30.56,30.45,5,0,6,0.00
2013-4-28,69.3,52.3,40.5,38.1,21.6,6.3,48,32,11,30.50,30.39,6,0,8,0.00
2013-4-29,68.4,53.7,45.0,38.7,15.4,-7.8,54,28,5,30.42,30.36,6,1,8,0.00
2013-4-30,60.4,50.7,42.4,27.5,16.7,3.7,43,28,12,30.50,30.39,8,0,8,0.00
2013-5-1,66.4,51.9,43.2,40.8,29.6,21.6,55,43,30,30.62,30.50,4,0,6,0.00
2013-5-2,71.6,53.7,43.5,43.9,30.3,23.8,61,42,20,30.59,30.53,5,0,5,0.00
2013-5-3,55.6,49.1,42.8,35.4,30.2,24.5,53,48,43,30.59,30.47,11,1,11,0.00
2013-5-4,63.0,50.6,45.0,39.1,28.2,22.7,60,43,26,30.47,30.42,6,1,9,0.00
2013-5-5,63.7,51.6,44.8,40.1,29.3,24.8,57,43,28,30.42,30.39,5,0,7,0.00
2013-5-6,62.2,51.0,46.2,42.6,33.7,29.3,64,52,37,30.42,30.30,5,0,8,0.00
2013-5-7,69.3,57.7,48.7,53.4,42.6,36.7,72,58,41,30.33,30.27,6,0,8,0.00
2013-5-8,70.3,59.2,54.7,58.0,46.7,40.9,76,63,51,30.36,30.18,6,0,7,0.20
2013-5-9,70.5,60.7,55.2,63.2,50.0,44.7,84,68,47,30.18,30.00,8,1,8,0.00
2013-5-10,74.7,62.8,55.4,63.0,46.4,36.1,81,58,28,30.09,29.97,6,1,7,0.00
2013-5-11,65.7,60.7,57.4,57.3,50.5,41.1,87,70,53,30.06,29.85,8,2,9,0.39
2013-5-12,62.6,59.6,54.5,59.1,54.9,44.2,89,85,68,29.88,29.68,6,1,9,0.28
2013-5-13,62.2,54.1,47.3,44.0,27.3,6.4,68,39,11,30.09,29.88,8,2,10,0.00
2013-5-14,61.7,53.1,49.8,27.6,20.2,-1.1,37,28,9,30.15,30.06,7,2,10,0.00
2013-5-15,66.4,54.2,45.9,48.4,29.7,11.4,70,41,13,30.18,29.80,9,2,12,0.04
2013-5-16,75.7,63.3,53.4,49.2,33.1,2.0,75,41,7,29.85,29.74,9,3,10,0.00
2013-5-17,68.0,59.4,51.8,32.3,27.5,19.0,41,30,17,30.33,29.85,8,2,10,0.00
2013-5-18,70.7,58.8,49.8,38.1,31.5,15.2,51,37,12,30.45,30.33,7,1,8,0.00
2013-5-19,72.1,61.5,53.1,43.5,34.6,17.1,59,39,15,30.50,30.39,6,1,8,0.00
2013-5-20,73.9,63.9,56.7,66.0,53.6,42.2,85,70,54,30.39,30.03,6,1,8,0.47
2013-5-21,74.5,64.8,59.4,59.8,51.8,45.5,79,63,47,30.09,29.97,7,0,8,0.00
2013-5-22,70.0,60.7,56.3,58.0,49.6,45.0,75,67,54,30.06,30.00,6,1,6,0.00
2013-5-23,68.0,64.7,61.2,62.1,58.7,53.2,85,81,75,30.09,30.00,9,2,11,0.39
2013-5-24,64.9,63.5,59.7,61.0,59.3,56.2,88,86,83,30.00,29.80,10,2,17,1.97
2013-5-25,59.7,55.4,48.9,56.2,52.3,44.3,92,89,84,29.83,29.77,7,1,8,0.20
2013-5-26,56.3,50.6,45.5,44.5,40.6,36.0,84,70,53,30.18,29.80,6,2,9,0.00
2013-5-27,66.2,60.1,50.2,37.3,32.3,26.4,59,36,24,30.30,30.18,6,1,7,0.00
2013-5-28,68.5,59.6,49.6,44.3,34.4,28.8,54,40,25,30.39,30.30,5,0,6,0.00
2013-5-29,64.4,59.4,56.7,55.4,48.9,38.2,78,69,45,30.36,30.12,10,1,11,0.75
2013-5-30,78.4,68.3,60.8,68.4,58.3,52.8,82,71,46,30.21,30.12,4,0,5,0.16
2013-5-31,85.8,72.4,63.3,63.8,49.0,39.6,75,48,22,30.21,30.09,5,0,8,0.00
2013-6-1,81.0,70.6,64.8,57.6,47.4,40.8,61,44,31,30.12,30.03,6,2,8,0.00
2013-6-2,74.7,67.9,64.6,57.3,50.6,46.7,65,54,40,30.06,29.94,8,2,9,0.00
2013-6-3,66.4,65.0,63.5,57.9,55.6,52.6,80,72,62,29.97,29.88,12,1,12,1.54
2013-6-4,67.5,61.5,56.8,58.1,40.8,27.3,80,50,26,30.18,29.88,6,2,8,0.00
2013-6-5,68.4,60.2,54.5,46.3,36.2,25.7,63,43,24,30.33,30.18,4,0,7,0.00
2013-6-6,71.8,61.9,54.9,40.7,33.8,28.2,48,35,24,30.33,30.21,6,0,8,0.00
2013-6-7,64.8,59.1,56.8,56.7,44.0,36.3,76,58,42,30.21,29.88,6,1,10,1.81
2013-6-8,68.4,64.6,59.4,63.3,57.2,52.2,85,77,69,30.09,29.65,10,2,12,0.28
2013-6-9,73.9,66.9,60.6,62.1,53.8,46.8,81,64,42,30.27,30.09,4,1,6,0.00
2013-6-10,69.3,63.6,58.8,57.8,52.1,49.8,72,66,60,30.33,30.12,5,0,6,0.43
2013-6-11,67.6,62.8,58.5,62.0,56.1,49.8,83,79,73,30.12,29.62,5,1,8,1.57
2013-6-12,66.0,61.6,57.9,55.8,49.7,42.0,82,66,44,29.88,29.65,8,2,10,0.00
2013-6-13,64.2,60.5,57.2,59.0,53.3,46.0,86,78,58,29.91,29.71,4,0,5,0.24
2013-6-14,63.7,60.0,55.9,61.1,56.1,49.9,93,87,80,29.85,29.65,8,1,8,0.94
2013-6-15,82.2,64.4,56.7,68.0,31.1,-20.0,98,54,2,30.06,29.83,5,0,8,0.00
2013-6-16,78.8,66.8,58.6,45.8,24.1,-16.6,53,28,2,30.06,29.88,6,1,10,0.00
2013-6-17,91.0,70.9,60.6,51.5,32.5,-13.0,64,32,2,30.03,29.88,5,1,7,0.00
2013-6-18,77.0,67.3,62.2,51.4,40.9,21.7,60,41,13,30.03,29.97,4,0,6,0.00
2013-6-19,80.1,64.8,54.5,60.3,27.1,-19.9,97,41,2,30.27,29.94,5,1,5,0.04
2013-6-20,79.3,65.0,51.8,56.9,22.9,-16.2,92,39,2,30.42,30.27,6,0,8,0.00
2013-6-21,81.5,68.6,60.4,46.6,18.7,-16.2,59,23,2,30.42,30.36,5,0,8,0.00
2013-6-22,82.2,70.4,63.1,59.8,30.1,-16.6,81,35,2,30.39,30.30,4,0,6,0.00
2013-6-23,81.7,71.8,66.2,60.4,48.9,32.4,80,50,17,30.33,30.18,4,0,6,0.00
2013-6-24,90.9,78.2,69.4,65.6,51.2,10.3,87,48,5,30.15,29.97,6,0,8,0.00
2013-6-25,91.2,77.8,68.2,59.5,38.6,-9.8,67,37,2,30.00,29.85,5,0,6,0.00
2013-6-26,90.0,76.1,69.4,67.2,50.5,-9.4,85,51,3,29.94,29.83,3,0,8,0.08
2013-6-27,72.0,68.3,65.8,67.1,61.4,52.1,94,79,53,29.97,29.85,0,0,4,0.00
2013-6-28,71.2,69.4,68.0,68.3,66.3,61.7,94,90,76,29.85,29.68,8,1,11,0.55
2013-6-29,72.9,69.8,67.8,68.8,65.4,61.1,94,86,68,29.88,29.68,5,0,8,0.83
2013-6-30,75.2,70.6,68.4,66.3,62.7,54.9,88,77,54,30.12,29.88,4,0,7,0.04
2013-7-1,76.8,71.8,69.1,67.2,62.3,55.0,86,73,48,30.27,30.09,5,0,7,0.08
2013-7-2,80.4,73.6,70.3,65.5,59.6,50.0,81,63,35,30.36,30.24,5,0,7,0.04
2013-7-3,88.2,76.9,71.2,63.0,54.3,39.1,73,49,18,30.36,30.33,8,0,11,0.00
2013-7-4,89.6,78.8,72.5,62.9,53.3,39.3,71,45,18,30.36,30.27,6,1,9,0.00
2013-7-5,91.4,80.7,73.2,58.5,47.2,25.3,60,35,10,30.30,30.18,6,1,8,0.00
2013-7-6,92.8,81.9,73.0,57.7,44.9,9.8,58,32,5,30.21,30.09,5,0,5,0.00
2013-7-7,92.8,81.1,72.0,59.1,36.3,-9.6,58,27,2,30.12,30.03,3,0,7,0.00
2013-7-8,90.1,78.5,71.4,61.8,50.0,25.1,67,42,10,30.15,30.03,4,0,6,0.00
2013-7-9,75.4,71.8,69.8,59.5,55.3,46.8,69,57,37,30.21,30.15,0,0,3,0.12
2013-7-10,83.5,74.7,69.6,64.6,59.1,47.3,75,60,29,30.21,29.97,4,0,8,0.00
2013-7-11,77.0,74.2,71.6,64.1,62.2,52.3,71,66,47,30.03,29.91,4,0,6,0.08
2013-7-12,74.3,69.8,66.7,62.5,56.1,44.2,74,63,38,30.30,30.00,2,0,4,0.00
2013-7-13,79.3,70.8,67.3,61.3,55.5,44.6,75,60,31,30.45,30.30,4,0,5,0.20
2013-7-14,88.3,76.3,70.0,65.7,58.5,43.5,76,57,21,30.45,30.33,3,0,4,0.00
2013-7-15,87.8,79.0,71.8,65.3,53.0,39.1,70,45,18,30.33,30.24,4,0,6,0.00
2013-7-16,88.0,78.6,69.6,59.9,42.1,9.3,61,33,6,30.30,30.21,2,0,3,0.00
2013-7-17,86.9,76.1,67.5,57.1,43.5,9.3,65,36,6,30.33,30.18,3,0,5,0.00
2013-7-18,88.2,79.9,73.6,56.1,43.7,18.9,53,31,8,30.18,30.09,2,0,5,0.00
2013-7-19,92.8,82.3,74.3,65.9,53.3,32.7,69,41,14,30.09,29.88,6,0,9,0.00
2013-7-20,90.0,82.1,76.6,62.1,51.2,35.2,59,37,15,29.91,29.80,6,0,11,0.00
2013-7-21,81.7,74.6,67.5,50.9,43.8,34.4,50,34,20,30.12,29.88,0,0,5,0.00
2013-7-22,78.4,71.3,67.5,59.0,50.9,41.4,68,50,27,30.12,30.00,4,0,6,0.00
2013-7-23,85.5,76.4,69.4,62.8,55.5,47.2,71,51,27,30.00,29.68,8,0,10,0.00
2013-7-24,89.2,78.4,70.9,60.5,48.2,16.6,62,38,9,30.00,29.68,3,0,4,0.12
2013-7-25,71.8,66.9,64.4,57.5,41.2,32.7,75,40,29,30.18,30.00,5,0,5,0.20
2013-7-26,67.5,66.3,64.4,64.7,61.3,55.4,92,84,72,30.15,29.97,5,0,6,2.52
2013-7-27,82.9,73.0,65.8,62.6,51.2,32.4,83,52,19,30.21,30.15,4,0,5,0.00
2013-7-28,77.5,72.1,68.5,63.8,56.4,48.1,72,59,37,30.18,30.09,0,0,5,0.24
2013-7-29,82.4,73.7,66.9,60.5,53.1,41.9,71,51,27,30.18,30.12,4,0,6,0.00
2013-7-30,80.8,72.0,66.9,58.2,40.6,-16.3,67,41,2,30.24,30.15,5,0,5,0.00
2013-7-31,82.6,71.6,63.5,50.9,34.1,-14.5,57,34,2,30.27,30.21,3,0,4,0.00
2013-8-1,82.0,71.4,64.4,56.9,39.8,-15.5,66,39,4,30.21,30.03,6,0,7,0.00
2013-8-2,83.3,72.1,65.8,59.2,47.7,18.4,66,46,9,30.03,29.91,6,0,6,0.16
2013-8-3,76.5,71.2,67.8,55.5,46.5,36.8,59,42,26,30.03,29.91,5,0,6,0.00
2013-8-4,81.5,70.0,61.9,44.9,31.5,-16.6,52,29,2,29.97,29.88,4,0,8,0.00
2013-8-5,76.3,67.6,57.7,45.4,15.9,-12.1,52,19,3,30.18,29.97,5,0,7,0.00
2013-8-6,78.1,65.4,53.1,46.7,19.2,-12.1,59,28,3,30.33,30.18,0,0,4,0.00
2013-8-7,80.1,66.1,54.9,50.2,21.6,-16.6,61,29,2,30.36,30.30,3,0,6,0.00
2013-8-8,83.3,71.4,59.4,54.6,41.6,16.6,61,38,9,30.30,30.21,4,0,8,0.00
2013-8-9,75.7,72.8,67.5,64.9,57.5,47.3,77,59,41,30.24,29.94,8,1,12,0.24
2013-8-10,85.8,75.6,65.1,61.6,34.2,-15.4,68,33,2,30.12,29.91,4,0,6,0.00
2013-8-11,79.3,68.6,58.3,45.8,19.1,-16.6,54,25,2,30.21,30.12,4,0,6,0.00
2013-8-12,81.0,71.4,62.6,53.6,41.6,10.6,54,37,7,30.18,30.09,4,0,6,0.00
2013-8-13,72.5,69.2,67.3,58.0,54.8,48.3,68,61,43,30.09,29.80,0,0,4,0.20
2013-8-14,80.4,70.0,65.7,57.3,25.8,-16.5,70,32,2,30.03,29.77,6,0,6,0.00
2013-8-15,79.5,68.8,61.9,29.1,8.4,-16.6,28,13,2,30.24,30.03,5,0,5,0.00
2013-8-16,81.3,70.1,59.5,44.0,17.5,-16.5,50,22,2,30.33,30.21,4,0,6,0.00
2013-8-17,82.0,67.4,60.4,47.2,37.0,-1.2,56,38,4,30.42,30.33,2,0,4,0.00
2013-8-18,75.6,66.4,59.7,53.4,41.7,14.9,61,43,10,30.42,30.21,4,0,4,0.08
2013-8-19,82.2,69.9,57.7,51.6,32.6,-16.5,66,36,2,30.21,30.06,2,0,4,0.00
2013-8-20,87.1,75.9,67.8,44.5,23.4,-14.8,43,20,2,30.21,30.06,0,0,4,0.00
2013-8-21,89.1,75.2,64.2,51.6,28.3,-14.4,56,30,2,30.27,30.15,6,0,6,0.00
2013-8-22,84.0,74.6,69.6,56.9,48.4,38.2,62,41,20,30.15,29.94,5,0,8,0.00
2013-8-23,77.0,71.1,62.6,55.4,32.2,-11.9,59,31,3,30.18,29.91,5,0,6,0.00
2013-8-24,75.7,65.8,52.7,42.0,14.6,-12.1,48,21,3,30.45,30.18,4,0,5,0.00
2013-8-25,84.0,67.0,51.6,40.6,15.0,-16.5,48,23,2,30.50,30.36,4,0,5,0.00
2013-8-26,80.8,71.8,64.9,46.0,32.2,-1.3,41,26,4,30.36,30.00,5,0,9,0.00
2013-8-27,73.8,70.2,66.6,59.5,53.9,44.7,66,57,39,30.00,29.94,0,0,4,0.20
2013-8-28,74.5,68.2,65.7,56.5,51.5,42.6,69,57,32,30.03,29.94,0,0,3,0.00
2013-8-29,69.3,65.7,60.4,55.2,47.8,38.0,68,53,39,30.15,30.03,4,0,5,0.00
2013-8-30,76.1,67.5,58.5,56.1,43.6,36.5,63,43,25,30.12,29.97,4,0,6,0.00
2013-8-31,77.0,72.3,69.3,56.9,53.5,46.2,63,52,34,29.97,29.94,4,0,8,0.00
2013-9-1,81.9,72.8,68.7,65.9,59.2,53.0,79,63,41,30.00,29.94,5,0,6,1.42
2013-9-2,93.2,74.9,68.9,61.7,54.1,6.4,73,53,4,30.00,29.83,5,0,8,0.00
2013-9-3,83.1,72.8,66.2,60.2,55.1,40.8,69,56,23,29.91,29.80,4,0,8,19.50
2013-9-4,80.4,69.5,62.1,56.5,36.7,-16.6,70,40,2,30.03,29.88,4,0,5,0.00
2013-9-5,73.8,64.0,52.9,53.8,42.0,31.1,62,46,22,30.24,29.97,5,0,7,0.00
2013-9-6,70.2,58.3,50.7,41.9,21.8,-8.8,61,34,4,30.36,30.24,3,0,4,0.00
2013-9-7,76.6,63.9,49.6,40.4,17.3,-12.1,59,26,3,30.24,29.97,4,0,7,0.00
2013-9-8,77.5,68.0,59.2,44.2,17.7,-7.9,43,18,5,30.18,29.83,6,0,8,0.00
2013-9-9,71.2,58.9,46.8,37.0,11.3,-8.8,47,21,4,30.36,30.18,5,0,6,0.00
2013-9-10,74.5,67.1,58.8,46.8,35.7,26.8,44,32,22,30.33,30.18,6,0,8,0.00
2013-9-11,85.3,74.8,69.8,56.9,49.3,37.7,62,43,19,30.24,30.12,4,0,6,19.70
2013-9-12,81.0,73.4,70.2,56.6,50.9,40.7,61,47,25,30.12,29.83,5,1,8,0.00
2013-9-13,74.3,70.5,64.8,59.1,52.8,43.5,65,54,36,29.83,29.68,4,0,5,0.08
2013-9-14,73.4,64.3,57.4,43.0,36.1,9.6,55,37,9,30.15,29.80,3,0,6,0.00
2013-9-15,74.1,61.4,52.2,44.6,21.2,-12.1,61,30,3,30.27,30.15,4,0,6,0.00
2013-9-16,65.8,60.5,54.3,46.7,37.0,26.9,59,43,24,30.30,30.12,4,0,9,0.04
2013-9-17,62.4,53.9,43.9,39.6,11.7,-7.0,59,24,6,30.50,30.30,4,0,5,0.00
2013-9-18,73.6,58.0,43.3,41.5,12.1,-20.0,60,27,2,30.45,30.27,3,0,5,0.00
2013-9-19,77.7,64.7,54.5,38.4,18.8,-12.1,51,26,3,30.27,30.15,0,0,4,0.00
2013-9-20,81.1,64.8,53.8,47.1,21.4,-16.5,61,31,2,30.21,30.12,3,0,4,0.00
2013-9-21,79.3,65.7,53.4,50.5,34.6,1.2,69,37,5,30.18,29.91,7,1,10,0.00
2013-9-22,69.3,66.2,59.4,57.1,45.1,24.8,68,48,25,29.91,29.77,6,0,10,0.12
2013-9-23,63.5,56.9,50.9,27.0,12.0,-6.9,39,20,6,30.06,29.88,6,1,7,0.00
2013-9-24,64.0,55.1,49.5,27.9,13.3,-6.9,43,23,6,30.09,29.94,4,0,7,0.00
2013-9-25,67.6,55.0,46.6,38.6,21.8,-8.0,58,34,5,30.06,29.97,4,0,5,0.00
2013-9-26,63.5,56.0,48.9,36.9,24.4,0.7,52,33,8,30.21,30.06,3,0,5,0.00
2013-9-27,63.9,58.2,50.2,38.1,30.8,18.5,52,36,18,30.36,30.21,5,0,8,0.00
2013-9-28,72.5,58.4,47.5,46.9,21.9,-8.8,62,35,4,30.42,30.36,2,0,4,0.00
2013-9-29,70.0,56.7,45.3,41.8,30.4,8.6,62,41,9,30.39,30.21,3,0,4,0.00
2013-9-30,69.8,59.8,52.0,48.6,34.3,10.1,66,42,10,30.21,30.06,3,0,6,0.00
2013-10-1,70.0,60.8,55.6,39.1,26.6,-8.8,50,33,4,30.06,29.94,5,0,6,0.00
2013-10-2,82.0,68.0,57.7,46.4,23.1,-16.5,61,30,2,30.03,29.91,4,0,6,0.00
2013-10-3,78.1,66.8,57.2,34.4,16.9,-12.1,40,20,3,30.18,30.03,5,0,5,0.00
2013-10-4,72.5,59.5,52.3,47.0,36.5,13.2,63,46,11,30.18,30.12,4,0,4,0.24
2013-10-5,69.3,61.5,56.7,52.2,44.2,37.5,67,54,33,30.24,30.15,4,0,4,0.00
2013-10-6,63.3,59.8,56.5,49.5,43.5,31.1,66,55,30,30.33,30.21,6,0,6,0.08
2013-10-7,75.0,67.6,61.7,56.8,48.9,41.0,68,52,31,30.24,29.97,10,1,11,0.00
2013-10-8,66.2,59.2,49.1,54.8,22.8,-8.0,67,31,5,30.47,29.97,8,0,8,0.28
2013-10-9,65.1,55.7,49.6,32.9,15.8,-8.0,52,25,5,30.56,30.47,3,0,5,0.00
2013-10-10,66.4,59.2,53.2,44.9,35.1,27.3,59,41,24,30.47,30.24,4,0,4,0.00
2013-10-11,68.7,61.0,54.7,47.5,39.9,25.6,64,48,22,30.24,30.18,4,0,5,0.00
2013-10-12,63.1,58.6,54.5,42.7,36.7,29.1,59,44,36,30.47,30.21,4,0,7,0.00
2013-10-13,64.2,54.3,41.4,30.7,17.9,-6.7,49,28,6,30.56,30.47,4,0,5,0.00
2013-10-14,64.8,49.4,37.4,37.3,20.0,-8.0,57,37,5,30.53,30.42,4,0,5,0.00
2013-10-15,66.7,53.7,42.4,41.6,28.3,2.6,59,42,8,30.42,30.30,6,0,6,0.00
2013-10-16,62.1,57.9,50.2,48.3,43.7,34.7,65,59,52,30.30,30.00,0,0,3,0.00
2013-10-17,71.2,62.5,57.4,49.4,43.2,31.3,69,52,23,30.00,29.85,4,0,4,0.00
2013-10-18,72.1,63.3,50.2,53.5,27.5,-8.8,68,36,4,30.00,29.74,5,0,6,0.00
2013-10-19,66.6,55.6,45.3,37.9,16.5,-12.5,52,28,4,30.12,29.85,4,0,4,0.00
2013-10-20,63.9,55.9,42.4,45.0,17.1,-10.7,62,31,5,30.12,29.80,5,1,8,0.00
2013-10-21,67.3,52.5,39.4,33.8,10.1,-12.5,54,27,4,30.24,30.12,4,0,5,0.00
2013-10-22,70.3,57.7,46.2,44.5,22.6,-8.8,60,31,4,30.15,29.80,4,0,5,0.00
2013-10-23,55.8,49.8,42.4,31.4,11.3,-7.7,58,27,7,29.88,29.65,3,0,5,0.20
2013-10-24,55.9,47.7,42.1,31.3,4.4,-11.7,60,23,6,30.00,29.71,6,1,8,0.00
2013-10-25,53.2,47.7,42.6,13.1,-7.7,-11.7,28,10,7,30.27,30.00,6,1,6,0.00
2013-10-26,59.5,48.6,33.4,22.3,-1.1,-10.8,48,17,6,30.30,30.00,10,1,13,0.00
2013-10-27,60.6,53.3,47.5,17.0,-6.6,-10.8,29,8,6,30.18,29.91,6,1,6,0.00
2013-10-28,60.3,49.9,36.9,15.7,-4.5,-11.7,38,12,6,30.45,30.18,5,0,8,0.00
2013-10-29,54.5,43.8,33.6,17.1,1.0,-10.0,42,20,8,30.53,30.45,3,0,4,0.00
2013-10-30,52.5,43.8,32.2,32.1,24.4,12.2,53,46,37,30.50,30.33,0,0,2,0.04
2013-10-31,65.8,54.4,39.9,43.8,30.7,7.1,65,43,10,30.36,30.00,7,1,8,0.00
2013-11-1,67.8,63.9,60.6,55.1,45.8,36.2,74,52,35,30.00,29.65,10,3,11,0.04
2013-11-2,61.0,57.2,52.5,44.1,38.6,27.6,62,51,29,29.80,29.68,3,0,3,0.04
2013-11-3,54.9,47.1,40.5,40.1,17.5,-10.0,60,34,10,30.47,29.80,5,1,7,0.04
2013-11-4,46.6,40.8,36.5,4.1,-9.3,-12.1,24,11,8,30.80,30.47,6,1,8,0.00
2013-11-5,51.1,40.2,34.2,17.9,8.5,-9.2,47,30,9,30.83,30.68,2,0,5,0.00
2013-11-6,58.1,48.3,34.9,43.1,24.6,-1.1,64,44,9,30.68,30.21,6,0,8,0.00
2013-11-7,63.3,57.1,47.1,54.2,42.5,10.4,73,59,22,30.21,29.77,6,2,11,1.14
2013-11-8,50.5,45.0,40.1,16.4,-5.7,-12.1,29,12,8,30.18,29.88,10,4,14,0.00
2013-11-9,47.1,40.6,36.3,9.6,-9.1,-13.6,32,12,8,30.30,30.18,8,2,10,0.00
2013-11-10,60.1,48.4,36.1,38.0,12.9,-7.4,60,28,7,30.18,29.83,8,1,9,0.04
2013-11-11,53.1,47.3,42.1,14.2,-4.7,-11.6,21,11,8,30.18,29.94,10,3,12,0.00
2013-11-12,53.2,39.8,32.0,26.9,9.9,-7.7,64,35,8,30.27,29.97,7,1,8,0.16
2013-11-13,39.0,33.7,30.6,-3.5,-10.4,-16.0,20,14,11,30.36,30.24,6,1,9,0.08
2013-11-14,51.4,40.7,29.7,10.1,-8.2,-16.6,32,13,8,30.33,30.15,8,1,11,0.00
2013-11-15,59.5,49.4,39.2,30.6,7.0,-10.0,52,22,6,30.33,30.27,5,1,9,0.00
2013-11-16,57.6,46.4,35.8,33.1,10.5,-10.8,57,29,6,30.45,30.33,4,0,4,0.00
2013-11-17,59.9,49.7,35.2,54.6,30.7,-4.8,88,55,7,30.45,30.00,6,1,10,0.12
2013-11-18,61.5,56.9,48.9,59.8,43.8,6.0,95,66,16,30.00,29.68,13,2,15,0.51
2013-11-19,51.1,42.5,35.4,14.6,-7.1,-13.1,27,12,9,30.36,29.74,11,4,11,0.00
2013-11-20,42.8,35.4,27.0,7.1,-8.7,-14.2,42,16,9,30.71,30.36,8,2,8,0.00
2013-11-21,48.9,35.4,25.7,20.8,5.9,-9.4,53,34,9,30.74,30.53,5,0,5,0.00
2013-11-22,53.1,46.5,35.2,46.7,33.6,16.9,79,61,46,30.53,29.91,8,0,8,0.16
2013-11-23,50.0,44.4,34.5,39.7,2.8,-14.6,69,23,8,29.94,29.85,10,4,13,0.00
2013-11-24,34.3,28.8,24.1,-13.9,-17.3,-19.6,13,12,11,30.24,29.85,14,6,17,0.00
2013-11-25,32.0,25.2,20.8,-12.4,-18.4,-20.8,19,13,12,30.50,30.24,10,4,15,0.00
2013-11-26,47.7,41.5,24.1,39.6,6.8,-12.2,75,28,9,30.47,30.18,6,1,8,0.08
2013-11-27,61.0,54.8,41.2,57.4,50.1,23.0,90,84,48,30.18,29.21,15,3,20,1.61
2013-11-28,41.0,34.3,28.4,23.3,-4.8,-17.7,51,21,10,30.56,29.59,11,3,15,0.00
2013-11-29,36.9,31.1,27.5,-12.7,-16.0,-18.4,13,12,11,30.83,30.56,7,2,8,0.00
2013-11-30,39.0,28.6,22.5,7.6,-6.3,-18.9,45,24,10,30.89,30.62,3,0,5,0.00
2013-12-1,49.5,42.5,26.1,42.9,22.6,7.6,78,47,22,30.62,30.09,6,1,9,0.20
2013-12-2,48.7,43.8,39.7,41.5,32.2,25.7,78,64,45,30.09,30.00,5,1,7,0.00
2013-12-3,46.4,42.5,38.8,29.3,26.7,20.4,62,53,44,30.03,29.91,6,2,8,0.00
2013-12-4,43.5,37.8,29.3,23.1,10.8,-10.0,61,36,10,30.36,30.03,6,2,10,0.00
2013-12-5,55.8,45.1,29.7,50.4,32.4,17.5,82,62,47,30.36,30.09,8,0,10,0.00
2013-12-6,57.9,50.9,39.2,54.2,43.6,26.8,89,76,55,30.24,30.00,6,2,8,0.35
2013-12-7,42.3,38.2,33.4,31.8,13.7,-13.4,76,44,12,30.56,30.18,6,2,10,0.35
2013-12-8,37.6,32.5,28.2,3.9,-9.7,-15.0,34,16,10,30.71,30.56,6,0,6,0.00
2013-12-9,49.5,41.1,33.8,42.9,30.1,-6.2,80,67,17,30.62,29.97,7,1,10,0.47
2013-12-10,39.9,34.5,28.2,29.0,19.2,-9.7,74,56,18,30.12,29.91,6,1,10,0.00
2013-12-11,36.1,30.1,25.7,5.3,-12.2,-16.9,41,16,11,30.39,30.12,8,1,10,0.08
2013-12-12,29.7,25.5,16.5,-10.3,-18.2,-23.3,18,13,12,30.39,30.24,8,2,11,0.04
2013-12-13,34.2,26.7,15.3,-13.6,-17.5,-22.9,23,13,11,30.47,30.15,10,2,11,0.00
2013-12-14,33.3,26.6,21.7,26.8,-5.4,-20.4,77,28,12,30.71,30.33,6,1,9,0.00
2013-12-15,48.6,32.5,28.6,47.2,21.3,3.4,96,65,32,30.33,29.47,10,3,13,1.14
2013-12-16,33.8,28.9,24.3,8.7,-9.8,-19.5,41,20,11,30.39,29.94,9,4,12,0.00
2013-12-17,42.1,28.4,14.5,36.4,1.3,-21.7,84,39,12,30.45,30.00,12,1,13,0.12
2013-12-18,39.2,33.8,28.6,32.6,13.1,-10.4,77,47,15,30.27,29.88,10,4,11,0.04
2013-12-19,46.8,37.4,28.6,9.5,-0.3,-9.9,32,21,11,30.30,30.15,8,2,12,0.00
2013-12-20,53.6,42.2,30.2,33.7,18.1,-4.7,61,39,16,30.30,30.12,9,1,10,0.00
2013-12-21,56.7,51.6,46.4,44.3,38.6,32.4,79,62,40,30.18,30.09,6,2,10,0.00
2013-12-22,59.5,53.5,46.4,53.7,44.2,33.1,81,71,56,30.18,30.03,9,2,15,0.00
2013-12-23,50.7,45.7,40.3,41.3,35.9,32.0,73,68,62,30.24,30.09,5,0,8,0.47
2013-12-24,41.5,36.0,30.6,34.2,17.0,-13.7,75,49,13,30.33,30.15,8,2,9,0.31
2013-12-25,31.1,25.4,21.4,1.8,-11.5,-19.2,36,20,12,30.71,30.33,9,2,11,0.00
2013-12-26,41.5,32.3,21.0,27.3,11.4,-4.2,66,44,16,30.68,30.21,8,1,11,0.20
2013-12-27,37.4,31.1,25.5,9.9,-1.4,-15.1,44,27,11,30.45,30.36,10,2,10,0.00
2013-12-28,48.2,36.2,24.4,20.7,3.4,-9.4,60,29,9,30.42,30.18,9,1,12,0.00
2013-12-29,53.6,43.2,33.4,51.3,30.4,14.4,94,62,38,30.18,29.35,10,1,13,1.02
2013-12-30,25.5,25.5,25.5,-17.0,-17.0,-17.0,14,14,14,30.24,30.24,3,2,4,0.00
2013-12-31,30.7,25.6,18.7,9.4,-8.5,-20.2,46,23,12,30.27,30.12,7,2,8,1.02
2014-1-1,30.4,25.1,19.6,-9.6,-17.7,-20.5,22,14,12,30.50,30.27,9,3,13,0.04
2014-1-2,33.6,29.1,23.9,22.0,11.6,-12.4,64,50,18,30.47,29.74,11,1,11,0.00